2 Carport Messungen

Zurück zum Überblick

Zeitpunkt Temperatur Luftfeuchte
07.08.2020 19:28:03 35,3 C 30,0%
07.08.2020 19:21:01 35,3 C 30,0%
07.08.2020 19:13:58 35,3 C 30,0%
07.08.2020 19:06:57 35,4 C 29,0%
07.08.2020 18:59:55 35,8 C 29,0%
07.08.2020 18:52:53 36,2 C 29,0%
07.08.2020 18:45:51 36,5 C 28,0%
07.08.2020 18:38:49 37,1 C 28,0%
07.08.2020 18:31:48 37,7 C 27,0%
07.08.2020 18:24:45 38,1 C 27,0%
07.08.2020 18:17:42 38,6 C 27,0%
07.08.2020 18:10:40 39,0 C 26,0%
07.08.2020 18:03:37 39,4 C 26,0%
07.08.2020 17:56:35 39,9 C 25,0%
07.08.2020 17:49:33 40,2 C 25,0%
07.08.2020 17:42:29 40,5 C 24,0%
07.08.2020 17:35:29 41,0 C 24,0%
07.08.2020 17:28:28 41,3 C 24,0%
07.08.2020 17:21:27 41,6 C 23,0%
07.08.2020 17:14:25 41,9 C 23,0%
07.08.2020 17:07:23 42,0 C 23,0%
07.08.2020 17:00:20 42,2 C 23,0%
07.08.2020 16:53:17 42,4 C 23,0%
07.08.2020 16:46:15 42,4 C 23,0%
07.08.2020 16:39:15 42,8 C 23,0%
07.08.2020 16:32:13 42,9 C 23,0%
07.08.2020 16:25:09 42,8 C 23,0%
07.08.2020 16:18:09 42,7 C 23,0%
07.08.2020 16:11:08 42,8 C 23,0%
07.08.2020 16:04:05 42,7 C 23,0%
07.08.2020 15:57:04 42,5 C 23,0%
07.08.2020 15:50:03 42,2 C 23,0%
07.08.2020 15:43:00 42,0 C 23,0%
07.08.2020 15:35:57 41,9 C 23,0%
07.08.2020 15:28:55 41,6 C 24,0%
07.08.2020 15:21:51 41,4 C 24,0%
07.08.2020 15:14:49 41,2 C 25,0%
07.08.2020 15:07:48 40,9 C 25,0%
07.08.2020 15:00:45 40,7 C 25,0%
07.08.2020 14:53:45 40,3 C 25,0%
07.08.2020 14:46:43 40,0 C 25,0%
07.08.2020 14:39:40 39,9 C 26,0%
07.08.2020 14:32:37 39,8 C 25,0%
07.08.2020 14:25:35 39,7 C 26,0%
07.08.2020 14:18:34 39,4 C 26,0%
07.08.2020 14:11:32 39,3 C 26,0%
07.08.2020 14:04:30 39,1 C 26,0%
07.08.2020 13:57:27 38,9 C 26,0%
07.08.2020 13:50:24 38,8 C 26,0%
07.08.2020 13:43:21 38,4 C 27,0%
07.08.2020 13:36:18 38,7 C 27,0%
07.08.2020 13:29:17 38,5 C 27,0%
07.08.2020 13:22:14 38,3 C 27,0%
07.08.2020 13:15:13 38,3 C 27,0%
07.08.2020 13:08:10 38,2 C 27,0%
07.08.2020 13:01:09 38,1 C 27,0%
07.08.2020 12:54:08 37,9 C 27,0%
07.08.2020 12:47:05 37,8 C 27,0%
07.08.2020 12:40:03 37,6 C 28,0%
07.08.2020 12:33:03 37,5 C 28,0%
07.08.2020 12:26:01 37,2 C 29,0%
07.08.2020 12:19:00 37,0 C 29,0%
07.08.2020 12:11:57 36,8 C 30,0%
07.08.2020 12:04:55 36,6 C 31,0%
07.08.2020 11:57:53 36,3 C 31,0%
07.08.2020 11:50:50 36,0 C 32,0%
07.08.2020 11:43:49 35,7 C 32,0%
07.08.2020 11:36:45 35,4 C 33,0%
07.08.2020 11:29:42 35,1 C 34,0%
07.08.2020 11:22:41 34,7 C 34,0%
07.08.2020 11:15:39 34,4 C 35,0%
07.08.2020 11:08:35 34,0 C 35,0%
07.08.2020 11:01:35 33,6 C 36,0%
07.08.2020 10:54:34 33,2 C 36,0%
07.08.2020 10:47:31 32,7 C 37,0%
07.08.2020 10:40:30 32,3 C 37,0%
07.08.2020 10:33:28 31,9 C 38,0%
07.08.2020 10:26:26 31,4 C 38,0%
07.08.2020 10:19:25 31,0 C 39,0%
07.08.2020 10:12:23 30,6 C 39,0%
07.08.2020 10:05:22 30,2 C 39,0%
07.08.2020 09:58:18 29,7 C 39,0%
07.08.2020 09:51:18 29,3 C 40,0%
07.08.2020 09:44:15 28,7 C 41,0%
07.08.2020 09:37:15 28,2 C 41,0%
07.08.2020 09:30:12 27,7 C 43,0%
07.08.2020 09:23:09 27,2 C 44,0%
07.08.2020 09:16:08 26,8 C 46,0%
07.08.2020 09:09:05 26,2 C 47,0%
07.08.2020 09:02:05 25,7 C 48,0%
07.08.2020 08:55:03 25,2 C 50,0%
07.08.2020 08:48:00 24,6 C 51,0%
07.08.2020 08:40:57 24,1 C 52,0%
07.08.2020 08:33:56 23,6 C 53,0%
07.08.2020 08:26:54 23,2 C 53,0%
07.08.2020 08:19:53 22,8 C 54,0%
07.08.2020 08:12:51 22,4 C 54,0%
07.08.2020 08:05:47 22,0 C 54,0%
07.08.2020 07:58:44 21,7 C 54,0%
07.08.2020 07:51:43 21,4 C 54,0%
07.08.2020 07:44:42 21,1 C 53,0%
07.08.2020 07:37:41 21,0 C 53,0%
07.08.2020 07:30:39 20,8 C 53,0%
07.08.2020 07:23:36 20,6 C 53,0%
07.08.2020 07:16:36 20,4 C 53,0%
07.08.2020 07:09:33 20,2 C 53,0%
07.08.2020 07:02:31 20,1 C 53,0%
07.08.2020 06:55:27 20,0 C 53,0%
07.08.2020 06:48:25 19,9 C 53,0%
07.08.2020 06:41:25 19,9 C 52,0%
07.08.2020 06:34:23 19,9 C 52,0%
07.08.2020 06:27:22 19,8 C 52,0%
07.08.2020 06:20:20 19,9 C 52,0%
07.08.2020 06:13:18 19,9 C 52,0%
07.08.2020 06:06:17 19,9 C 52,0%
07.08.2020 05:59:15 20,0 C 51,0%
07.08.2020 05:52:15 20,1 C 51,0%
07.08.2020 05:45:12 20,2 C 50,0%
07.08.2020 05:38:11 20,7 C 49,0%
07.08.2020 05:31:10 20,8 C 49,0%
07.08.2020 05:24:08 20,9 C 48,0%
07.08.2020 05:17:06 21,0 C 48,0%
07.08.2020 05:10:03 21,1 C 48,0%
07.08.2020 05:03:01 21,1 C 48,0%
07.08.2020 04:55:58 21,2 C 48,0%
07.08.2020 04:48:57 21,3 C 47,0%
07.08.2020 04:41:55 21,4 C 47,0%
07.08.2020 04:34:52 21,4 C 47,0%
07.08.2020 04:27:51 21,5 C 47,0%
07.08.2020 04:20:49 21,6 C 46,0%
07.08.2020 04:13:46 21,7 C 46,0%
07.08.2020 04:06:45 21,7 C 46,0%
07.08.2020 03:59:43 21,9 C 46,0%
07.08.2020 03:52:41 21,9 C 46,0%
07.08.2020 03:45:41 22,0 C 45,0%
07.08.2020 03:38:39 22,1 C 45,0%
07.08.2020 03:31:38 22,1 C 45,0%
07.08.2020 03:24:37 22,2 C 45,0%
07.08.2020 03:17:36 22,3 C 45,0%
07.08.2020 03:10:35 22,3 C 45,0%
07.08.2020 03:03:34 22,5 C 45,0%
07.08.2020 02:56:31 22,5 C 44,0%
07.08.2020 02:49:29 22,6 C 44,0%
07.08.2020 02:42:25 22,7 C 44,0%
07.08.2020 02:35:24 22,8 C 44,0%
07.08.2020 02:28:23 22,9 C 44,0%
07.08.2020 02:21:20 23,1 C 43,0%
07.08.2020 02:14:19 23,1 C 43,0%
07.08.2020 02:07:17 23,2 C 43,0%
07.08.2020 02:00:15 23,4 C 43,0%
07.08.2020 01:53:13 23,4 C 43,0%
07.08.2020 01:46:12 23,5 C 43,0%
07.08.2020 01:39:10 23,7 C 43,0%
07.08.2020 01:32:08 23,8 C 42,0%
07.08.2020 01:25:08 23,9 C 42,0%
07.08.2020 01:18:07 24,0 C 42,0%
07.08.2020 01:11:07 24,1 C 42,0%
07.08.2020 01:04:06 24,3 C 41,0%
07.08.2020 00:57:03 24,4 C 41,0%
07.08.2020 00:50:00 24,5 C 41,0%
07.08.2020 00:42:58 24,6 C 41,0%
07.08.2020 00:35:57 24,8 C 41,0%
07.08.2020 00:28:56 24,9 C 41,0%
07.08.2020 00:21:54 25,0 C 41,0%
07.08.2020 00:14:53 25,2 C 40,0%
07.08.2020 00:07:51 25,2 C 40,0%
07.08.2020 00:00:49 25,5 C 40,0%